Disclaimer

Please do not use the information listed here in-flight or in-navigation, as they are not provided to us by the airports but are provided by volunteers, so they might be outdated.

Search


Regions


Airport information page

No radio frequency information is available.

Airport informations:
Latitude: 52° 31' 37.28" N
Longitude: 031° 01' 00.09" E
Elevation: 471 feet - 144 meters
Operating hours: 24 hour operations
Operating agency: Civil government, landing fees and diplomatic clearance may be required
Timezone: UTC+2(+3DT) - Last Sunday in March to last Sunday in October
Fuel: N/A

Runway information:
11/29 - 8432 x 141 feet< - >2570 x 43 meters

Recent METARs:
UMGG 170900Z 19007G12MPS 9999 OVC007 M02/M04 Q1005 R28/820238 NOSIG
UMGG 170900Z 19007G12MPS 9999 OVC007 M02/M04 Q1005 R28/820238 NOSIG
UMGG 171000Z 19007G12MPS 9999 BKN008 OVC044 M01/M03 Q1005 R28/820238 NOSIG

Airport on the map: